Regional Weather Roundup
Issued by NWS

Home | Current Version | Previous Version | Text Only | Print | Product List | Glossary Off
Versions: 1 2 3 4 5 6 7 8 9 10 11 12 13 14 15 16 17 18 19 20 21 22 23 24 25 26 27 28 29 30 31 32 33 34 35 36 37 38 39 40 41 42 43 44 45 46 47 48 49 50

000
ASUS45 KPSR 040810
RWRAZ

ARIZONA REGIONAL HOURLY WEATHER ROUNDUP
NATIONAL WEATHER SERVICE PHOENIX AZ
100 AM MST MON MAY 04 2015

NOTE: FAIR INDICATES FEW OR NO CLOUDS BELOW 12,000 FEET WITH NO
SIGNIFICANT WEATHER AND/OR OBSTRUCTIONS TO VISIBILITY.

AZZ001>003-036-040900-
NORTHWEST ARIZONA

CITY           SKY/WX    TMP DP  RH WIND       PRES   REMARKS
BULLHEAD CITY  PTCLDY    82  41  23 S9        29.74S
KINGMAN        CLEAR     64  37  36 S5        29.89R
$$

AZZ004>008-015-016-018-040900-
NORTH CENTRAL ARIZONA

CITY           SKY/WX    TMP DP  RH WIND       PRES   REMARKS
GRAND CANYON   PTCLDY    35  33  92 CALM      30.06S
WILLIAMS       CLEAR     43  36  75 S9        30.12S
PRESCOTT       CLEAR     53  36  52 S5        29.97F
FLAGSTAFF      PTCLDY    39  34  82 CALM      30.08F
PAYSON         LGT RAIN  52  46  82 VRB3      30.07R
PAGE           PTCLDY    61  39  44 W3        29.95S
$$

AZZ009>014-017-040900-
NORTHEAST ARIZONA

CITY           SKY/WX    TMP DP  RH WIND       PRES   REMARKS
WINSLOW        PTCLDY    51  39  63 SW7       29.98F
SAINT JOHNS    MOCLDY    52  39  61 E6        30.03F
WINDOW ROCK    CLOUDY    51  39  63 N3        30.08F
SHOW LOW       PTCLDY    46  37  71 E8        30.06F
$$

AZZ023-040900-
GREATER PHOENIX AREA

CITY           SKY/WX    TMP DP  RH WIND       PRES   REMARKS
PHOENIX        MOCLDY    79  51  37 W10       29.79R THUNDER
LUKE AFB       MOCLDY    75  54  46 S14G24    29.80R
DEER VALLEY    MOCLDY    75  51  43 SW8       29.81R
SCOTTSDALE     MOCLDY    77  50  38 CALM      29.84R
MESA-GATEWAY   HVY RAIN  70  54  56 SE7       29.87R
$$

AZZ027-028-040900-
SOUTHWEST MARICOPA COUNTY AND PINAL COUNTY

CITY           SKY/WX    TMP DP  RH WIND       PRES   REMARKS
CASA GRANDE    CLOUDY    72  55  56 CALM      29.82S THUNDER
GILA BEND      MOCLDY    76  48  37 SE5       29.78F
$$

AZZ503-504-507>509-040900-
SOUTHEAST ARIZONA

CITY           SKY/WX    TMP DP  RH WIND       PRES   REMARKS
TUCSON         MOCLDY    72  51  47 NW5       29.90S
DAVIS-MONTHAN  PTCLDY    70  52  52 NW7       29.89R
NOGALES        PTCLDY    61  45  55 E3        29.95F
SIERRA VISTA   PTCLDY    63  39  41 W6        29.98S
DOUGLAS        PTCLDY    61  41  47 SE3       29.95S
SAFFORD        PTCLDY    73  39  29 NW15      29.84S
$$

AZZ020-021-025-026-031-040900-
SOUTHWEST ARIZONA

CITY           SKY/WX    TMP DP  RH WIND       PRES   REMARKS
YUMA           CLEAR     74  54  49 SE9       29.75F
$$

CAZ031-033-041-043-047-048-061-040900-
SOUTHERN CALIFORNIA

CITY           SKY/WX    TMP DP  RH WIND       PRES   REMARKS
DOWNTOWN L.A.  CLEAR     58  51  78 VRB3      29.92R
L.A. AIRPORT   CLEAR     56  51  84 SW8       29.92R
SAN DIEGO      CLOUDY    63  52  67 SW7       29.95S
BURBANK        CLEAR     58  48  69 SE6       29.91R
ONTARIO        PTCLDY    55  47  74 W6        29.93R
RIVERSIDE      CLEAR     57  47  69 VRB3      29.93S
PALM SPRINGS   CLEAR     75  45  34 CALM      29.78S
EL CENTRO NAS  CLEAR     72  51  47 SW8       29.75S
IMPERIAL       CLEAR     72  56  57 CALM      29.74R
BLYTHE         CLEAR     78  53  41 SW8       29.75S
NEEDLES        PTCLDY    82  40  22 W16       29.73S
$$

NVZ020-UTZ003-040900-
SOUTHERN NEVADA-UTAH

CITY           SKY/WX    TMP DP  RH WIND       PRES   REMARKS
LAS VEGAS      CLEAR     76  28  17 S10       29.74R
SALT LAKE CITY LGT RAIN  62  47  57 SE13      29.96R
$$

NMZ009-TXZ055-040900-
NEW MEXICO-WEST TEXAS

CITY           SKY/WX    TMP DP  RH WIND       PRES   REMARKS
ALBUQUERQUE    MOCLDY    61  37  41 NW7       30.02S
EL PASO        MOCLDY    70  45  40 N12       29.91F
$$


........................KEY........................
SKY/WX - SKY CONDITION/WEATHER
TMP    - TEMPERATURE IN FAHRENHEIT
DP     - DEW POINT IN FAHRENHEIT
RH     - RELATIVE HUMIDITY IN PERCENT
WIND   - DIRECTION AND SPEED IN MILES PER HOUR (MPH)
VRB    - VARIABLE WIND DIRECTION
PRES   - MEAN SEA LEVEL PRESSURE IN INCHES OF MERCURY
         F - FALLING PRESSURE   R - RISING PRESSURE
         S - STEADY PRESSURE
VSB    - VISIBILITY IN MILES
HX     - HEAT INDEX IN FAHRENHEIT
WCI    - WIND CHILL INDEX IN FAHRENHEIT
TC     - TEMPERATURE IN CELSIUS WHICH IS ALSO KNOWN AS
         TEMPERATURE IN CENTIGRADE
AFB    - AIR FORCE BASE
         LUKE AFB IS LUKE AIR FORCE BASE
         DAVIS-MONTHAN IS DAVIS-MONTHAN AIR FORCE BASE
NAS    - NAVAL AIR STATION
         EL CENTRO NAS IS EL CENTRO NAVAL AIR STATION
N/A    - NOT AVAILABLE




USA.gov is the U.S. government's official web portal to all federal, state and local government web resources and services.